User: anonymous   Login
Location: Unspecified
(0.0000°N, 0.0000°E)
Time: 06:30:02
(UTC+00:00)
Language:

POLYITAN 1 - Orbit

View from above orbital plane
View from above orbital plane
View from above satellite
View from above satellite

Ground track
Ground track

The orbit data is extracted from the following two-line orbital elements,

1 40042U 14033AJ  22333.23250089  .00002883  00000-0  29266-3 0  9992
2 40042  97.9870 273.5418 0012525 222.7559 137.2685 14.91612740458205
Epoch (UTC): 29 November 2022 05:34:48
Eccentricity: 0.0012525
inclination: 97.9870°
perigee height: 584 km
apogee height: 601 km
right ascension of ascending node: 273.5418°
argument of perigee: 222.7559°
revolutions per day: 14.91612740
mean anomaly at epoch: 137.2685°
orbit number at epoch: 45820

The dashed part of the orbit path shows where the satellite is in the earth's shadow,  

DLR